CW4223 Weather Reports


time (UTC)temp
F
wind
direction
speed
knots
gust
knots
rain 1hr
in
rain 24hr
in
rain mn
in
humidity
%
barometer
mb
20260505195305 86 217 7.8 20.0 0.00 0.00 0.00 65 1003.3
20260505195006 85 196 7.0 15.6 0.00 0.00 0.00 65 1004.1
20260505194804 86 216 7.8 13.0 0.00 0.00 0.00 64 1003.3
20260505194505 85 237 5.2 9.6 0.00 0.00 0.00 65 1004.1
20260505194304 86 206 7.0 12.2 0.00 0.00 0.00 65 1003.4
20260505193804 85 181 7.0 11.3 0.00 0.00 0.00 66 1003.3
20260505193504 84 195 7.0 13.9 0.00 0.00 0.00 67 1004.1
20260505193010 84 202 6.1 13.9 0.00 0.00 0.00 68 1004.1
20260505192804 85 224 7.8 17.4 0.00 0.00 0.00 67 1003.4
20260505192501 84 169 6.1 13.9 0.00 0.00 0.00 66 1004.1
20260505192305 85 211 7.8 12.2 0.00 0.00 0.00 67 1003.5
20260505192003 84 181 6.1 11.3 0.00 0.00 0.00 68 1004.2
20260505191804 84 211 7.0 13.9 0.00 0.00 0.00 68 1003.5
20260505191502 83 209 7.0 11.3 0.00 0.00 0.00 68 1004.1
20260505191001 83 228 7.8 11.3 0.00 0.00 0.00 67 1004.3
20260505190804 83 217 8.7 14.8 0.00 0.00 0.00 68 1003.6
20260505190304 83 210 8.7 17.4 0.00 0.00 0.00 68 1003.6
20260505190014 83 222 7.0 13.9 0.00 0.00 0.00 68 1004.2
20260505185505 83 213 6.1 13.0 0.00 0.00 0.00 68 1004.4
20260505185006 83 236 7.8 13.9 0.00 0.00 0.00 69 1004.5
20260505184006 82 240 7.8 12.2 0.00 0.00 0.00 68 1004.4
20260505183506 82 194 7.0 13.9 0.00 0.00 0.00 68 1004.5
20260505183004 82 222 7.8 15.6 0.00 0.00 0.00 69 1004.5
20260505182504 82 186 7.8 15.6 0.00 0.00 0.00 68 1004.4
20260505182306 82 205 10.4 15.6 0.00 0.00 0.00 68 1003.7
20260505182006 82 247 6.1 11.3 0.00 0.00 0.00 68 1004.5
20260505181804 83 209 8.7 14.8 0.00 0.00 0.00 68 1003.8
20260505181502 82 220 7.0 13.0 0.00 0.00 0.00 68 1004.6
20260505181004 82 221 7.0 13.0 0.00 0.00 0.00 68 1004.6
20260505180804 83 204 10.4 14.8 0.00 0.00 0.00 67 1003.9
20260505180505 82 196 7.0 12.2 0.00 0.00 0.00 67 1004.7
20260505180006 82 174 7.8 13.0 0.00 0.00 0.00 68 1004.7
20260505175503 82 187 7.8 14.8 0.00 0.00 0.00 68 1004.6
20260505175005 82 217 7.0 14.8 0.00 0.00 0.00 68 1004.7
20260505174503 81 174 7.8 13.9 0.00 0.00 0.00 68 1004.8
20260505174304 82 210 8.7 20.0 0.00 0.00 0.00 68 1004.1
20260505174005 82 178 7.0 13.9 0.00 0.00 0.00 68 1004.9
20260505173504 82 225 7.8 13.0 0.00 0.00 0.00 69 1004.8
20260505173304 82 203 8.7 15.6 0.00 0.00 0.00 69 1004.0
20260505173004 81 203 7.0 12.2 0.00 0.00 0.00 69 1004.8
20260505172007 81 229 8.7 15.6 0.00 0.00 0.00 71 1004.8
20260505171503 80 193 8.7 15.6 0.00 0.00 0.00 70 1004.9
20260505171304 81 223 11.3 17.4 0.00 0.00 0.00 70 1004.1
20260505171004 80 208 7.8 15.6 0.00 0.00 0.00 71 1004.8
20260505170501 80 202 7.8 15.6 0.00 0.00 0.00 71 1005.0
20260505165500 80 200 7.0 12.2 0.00 0.00 0.00 71 1004.8
20260505165306 81 211 10.4 14.8 0.00 0.00 0.00 71 1004.1
20260505165004 80 190 7.0 15.6 0.00 0.00 0.00 72 1004.7
20260505164504 80 167 7.8 16.5 0.00 0.00 0.00 72 1004.9
20260505164304 80 211 12.2 20.9 0.00 0.00 0.00 71 1004.0
20260505164003 80 200 7.8 16.5 0.00 0.00 0.00 71 1004.9
20260505163804 80 215 10.4 15.6 0.00 0.00 0.00 71 1004.0
20260505163501 80 213 8.7 16.5 0.00 0.00 0.00 72 1004.8
20260505163304 80 198 10.4 21.7 0.00 0.00 0.00 72 1004.0
20260505163005 79 181 7.8 16.5 0.00 0.00 0.00 72 1004.8
20260505162803 80 206 9.6 17.4 0.00 0.00 0.00 72 1004.0
20260505162306 80 194 8.7 15.6 0.00 0.00 0.00 72 1004.0
20260505162004 79 212 8.7 15.6 0.00 0.00 0.00 73 1004.6
20260505161804 79 205 12.2 18.2 0.00 0.00 0.00 72 1003.9
20260505161001 79 190 7.8 13.9 0.00 0.00 0.00 74 1004.5
20260505160804 79 203 9.6 13.9 0.00 0.00 0.00 73 1003.6
20260505160504 78 186 7.8 16.5 0.00 0.00 0.00 74 1004.5
20260505153003 76 196 7.8 13.9 0.00 0.00 0.00 77 1004.6
20260505152804 76 188 7.8 13.0 0.00 0.00 0.00 78 1004.1
20260505152500 76 189 7.8 15.6 0.00 0.00 0.00 78 1004.7
20260505152305 76 208 9.6 17.4 0.00 0.00 0.00 77 1004.1
20260505152007 76 226 8.7 16.5 0.00 0.00 0.00 78 1004.7
20260505151804 76 201 12.2 20.9 0.00 0.00 0.00 78 1003.9
20260505151500 75 190 7.0 16.5 0.00 0.00 0.00 78 1004.7
20260505151304 76 199 7.8 13.0 0.00 0.00 0.00 79 1003.9
20260505150505 75 217 7.8 15.6 0.00 0.00 0.00 79 1004.8
20260505150304 75 199 9.6 17.4 0.00 0.00 0.00 79 1004.2
20260505140503 73 178 7.0 15.6 0.00 0.00 0.00 82 1004.6
20260505140304 73 211 7.8 20.0 0.00 0.00 0.00 82 1003.8
20260505125001 71 201 7.0 11.3 0.00 0.00 0.00 84 1004.5
20260505124503 71 203 7.0 13.9 0.00 0.00 0.00 84 1004.3
20260505124003 71 234 7.8 13.9 0.00 0.00 0.00 84 1004.1
20260505123501 71 219 7.0 11.3 0.00 0.00 0.00 84 1004.1
20260505123005 71 202 6.1 12.2 0.00 0.00 0.00 84 1004.0
20260505122504 71 232 6.1 12.2 0.00 0.00 0.00 84 1004.1
20260505122001 71 210 6.1 13.0 0.00 0.00 0.00 84 1004.0
20260505121804 71 193 8.7 15.6 0.00 0.00 0.00 83 1003.4
20260505121502 71 239 6.1 13.0 0.00 0.00 0.00 84 1004.0
20260505121304 71 213 6.1 10.4 0.00 0.00 0.00 84 1003.3
20260505121004 71 186 6.1 9.6 0.00 0.00 0.00 83 1004.0
20260505120804 71 207 8.7 13.0 0.00 0.00 0.00 84 1003.3
20260505120506 71 169 6.1 13.0 0.00 0.00 0.00 83 1003.9
20260505120303 71 206 7.0 13.0 0.00 0.00 0.00 83 1003.4
20260505120007 71 221 6.1 13.0 0.00 0.00 0.00 83 1003.9
20260505115007 71 211 7.0 13.0 0.00 0.00 0.00 83 1003.9
20260505114001 71 211 7.0 13.9 0.00 0.00 0.00 83 1003.7
20260505113804 71 203 10.4 14.8 0.00 0.00 0.00 83 1002.9
20260505113500 71 195 7.0 12.2 0.00 0.00 0.00 83 1003.6
20260505113304 71 184 7.8 15.6 0.00 0.00 0.00 83 1002.9
20260505113005 71 224 7.8 13.0 0.00 0.00 0.00 83 1003.6
20260505112504 71 178 7.8 13.0 0.00 0.00 0.00 83 1003.5
20260505112305 71 200 10.4 17.4 0.00 0.00 0.00 83 1002.9
20260505112007 71 212 7.0 13.9 0.00 0.00 0.00 83 1003.5
20260505111504 71 175 7.8 14.8 0.00 0.00 0.00 83 1003.6
20260505111304 71 219 9.6 20.0 0.00 0.00 0.00 83 1002.9
20260505111001 71 194 7.8 14.8 0.00 0.00 0.00 83 1003.6
20260505110501 71 186 7.0 11.3 0.00 0.00 0.00 83 1003.6
20260505110304 71 190 7.0 13.9 0.00 0.00 0.00 83 1002.8
20260505102006 71 196 7.0 20.0 0.00 0.00 0.00 83 1003.8
20260505101804 71 197 10.4 26.1 0.00 0.00 0.00 83 1003.2
20260505101304 71 204 7.8 13.9 0.00 0.00 0.00 83 1003.2
20260505101002 71 209 7.8 13.9 0.00 0.00 0.00 83 1003.8
20260505100501 71 184 7.8 14.8 0.00 0.00 0.00 83 1003.7
20260505100001 71 196 7.0 14.8 0.00 0.00 0.00 83 1003.7
20260505095305 71 209 8.7 18.2 0.00 0.00 0.00 83 1003.3
20260505095007 71 190 7.8 17.4 0.00 0.00 0.00 83 1003.8
20260505094804 71 203 11.3 20.0 0.00 0.00 0.00 83 1003.1
20260505094004 71 212 7.8 14.8 0.00 0.00 0.00 83 1003.9
20260505093503 71 239 7.8 14.8 0.00 0.00 0.00 83 1003.9
20260505093304 71 200 8.7 14.8 0.00 0.00 0.00 83 1003.4
20260505093006 71 180 7.8 13.0 0.00 0.00 0.00 83 1004.0
20260505092501 71 201 7.8 14.8 0.00 0.00 0.00 83 1004.1
20260505092305 71 191 11.3 18.2 0.00 0.00 0.00 83 1003.5
20260505092003 71 198 7.8 14.8 0.00 0.00 0.00 83 1004.0
20260505091506 71 181 7.8 14.8 0.00 0.00 0.00 83 1004.0
20260505091003 71 174 7.8 14.8 0.00 0.00 0.00 83 1004.0
20260505090804 71 192 8.7 20.0 0.00 0.00 0.00 83 1003.4
20260505090502 71 201 7.8 14.8 0.00 0.00 0.00 83 1004.0
20260505090304 71 200 8.7 18.2 0.00 0.00 0.00 83 1003.4
20260505090007 71 211 8.7 14.8 0.00 0.00 0.00 83 1003.9
20260505085804 71 198 9.6 18.2 0.00 0.00 0.00 83 1003.4
20260505085500 71 184 7.8 14.8 0.00 0.00 0.00 83 1003.9
20260505085305 71 188 10.4 20.0 0.00 0.00 0.00 83 1003.4
20260505085005 71 184 8.7 18.2 0.00 0.00 0.00 83 1003.9
20260505084503 71 215 8.7 18.2 0.00 0.00 0.00 83 1004.0
20260505084303 71 206 11.3 20.9 0.00 0.00 0.00 83 1003.3
20260505084003 71 179 8.7 16.5 0.00 0.00 0.00 83 1003.9
20260505083804 71 191 10.4 18.2 0.00 0.00 0.00 83 1003.4
20260505082804 71 197 11.3 17.4 0.00 0.00 0.00 83 1003.4
20260505082025 71 215 8.7 17.4 0.00 0.00 0.00 83 1004.0
20260505081502 71 236 8.7 17.4 0.00 0.00 0.00 83 1004.0
20260505081304 71 199 11.3 18.2 0.00 0.00 0.00 83 1003.5
20260505081005 71 227 8.7 14.8 0.00 0.00 0.00 83 1004.0
20260505080804 71 195 12.2 20.0 0.00 0.00 0.00 82 1003.5
20260505080007 71 165 8.7 16.5 0.00 0.00 0.00 82 1004.2
20260505075804 71 206 11.3 17.4 0.00 0.00 0.00 82 1003.6
20260505075502 71 186 7.8 16.5 0.00 0.00 0.00 82 1004.3
20260505075304 71 202 8.7 18.2 0.00 0.00 0.00 82 1003.7
20260505075003 71 194 7.0 15.6 0.00 0.00 0.00 82 1004.3
20260505074804 71 206 7.8 20.9 0.00 0.00 0.00 82 1004.0
20260505074304 71 203 8.7 14.8 0.00 0.00 0.00 82 1004.0
20260505074003 71 198 7.0 13.9 0.00 0.00 0.00 82 1004.7
20260505073502 71 198 7.0 16.5 0.00 0.00 0.00 81 1004.7
20260505073304 71 198 7.8 13.9 0.00 0.00 0.00 81 1004.0
20260505073001 71 199 7.8 16.5 0.00 0.00 0.00 81 1004.8
20260505072503 71 185 8.7 15.6 0.00 0.00 0.00 81 1004.9
20260505072305 72 200 10.4 17.4 0.00 0.00 0.00 81 1004.1
20260505072004 71 213 8.7 15.6 0.00 0.00 0.00 81 1004.9
20260505071804 72 199 10.4 18.2 0.00 0.00 0.00 80 1004.2
20260505071504 71 169 7.8 15.6 0.00 0.00 0.00 80 1004.9
20260505071303 72 203 11.3 20.9 0.00 0.00 0.00 80 1004.3
20260505071000 71 165 8.7 15.6 0.00 0.00 0.00 80 1005.0
20260505070804 72 197 8.7 20.0 0.00 0.00 0.00 80 1004.3
20260505070459 72 185 8.7 15.6 0.00 0.00 0.00 80 1005.1
20260505070007 71 195 7.8 15.6 0.00 0.00 0.00 80 1005.1
20260505065004 71 185 7.0 14.8 0.00 0.00 0.00 80 1005.3
20260505064008 71 234 7.8 13.0 0.00 0.00 0.00 80 1005.3
20260505063804 72 194 7.8 15.6 0.00 0.00 0.00 79 1004.5
20260505063303 72 189 9.6 14.8 0.00 0.00 0.00 79 1004.5
20260505063004 71 209 7.8 16.5 0.00 0.00 0.00 79 1005.2
20260505062803 72 196 10.4 17.4 0.00 0.00 0.00 79 1004.5
20260505062502 71 209 7.8 16.5 0.00 0.00 0.00 79 1005.2
20260505062304 72 196 11.3 17.4 0.00 0.00 0.00 79 1004.4
20260505061502 71 207 7.0 12.2 0.00 0.00 0.00 79 1005.4
20260505061304 72 207 11.3 15.6 0.00 0.00 0.00 79 1004.6
20260505060504 71 156 7.0 12.2 0.00 0.00 0.00 78 1005.4
20260505060304 72 193 7.8 13.9 0.00 0.00 0.00 79 1004.9
20260505055804 72 190 9.6 20.0 0.00 0.00 0.00 78 1004.8
20260505055507 71 191 7.0 14.8 0.00 0.00 0.00 78 1005.5
20260505055000 71 217 7.0 11.3 0.00 0.00 0.00 78 1005.6
20260505054804 72 187 9.6 14.8 0.00 0.00 0.00 78 1004.9
20260505054502 71 208 7.0 11.3 0.00 0.00 0.00 78 1005.6
20260505054005 71 196 7.0 12.2 0.00 0.00 0.00 78 1005.6
20260505053502 72 169 7.0 13.9 0.00 0.00 0.00 77 1005.7
20260505053002 72 178 7.0 13.9 0.00 0.00 0.00 77 1005.8
20260505052804 72 204 9.6 17.4 0.00 0.00 0.00 77 1005.2
20260505052501 72 176 7.8 14.8 0.00 0.00 0.00 77 1005.7
20260505052304 72 186 8.7 17.4 0.00 0.00 0.00 77 1005.2
20260505052002 72 210 7.8 14.8 0.00 0.00 0.00 77 1005.7
20260505051803 72 197 10.4 17.4 0.00 0.00 0.00 77 1005.3
20260505051500 71 155 6.1 10.4 0.00 0.00 0.00 77 1005.9
20260505051304 72 184 7.0 13.9 0.00 0.00 0.00 77 1005.3
20260505051001 71 167 5.2 11.3 0.00 0.00 0.00 77 1005.9
20260505050459 71 163 5.2 10.4 0.00 0.00 0.00 77 1005.9
20260505050304 72 194 7.8 13.9 0.00 0.00 0.00 77 1005.2
20260505041506 72 206 6.1 10.4 0.00 0.00 0.00 76 1006.1
20260505041304 72 184 8.7 12.2 0.00 0.00 0.00 76 1005.4
20260505041005 72 174 5.2 9.6 0.00 0.00 0.00 76 1006.1
20260505040503 72 194 6.1 9.6 0.00 0.00 0.00 75 1006.2
20260505040008 72 177 5.2 9.6 0.00 0.00 0.00 75 1006.1
20260505035508 72 159 5.2 10.4 0.00 0.00 0.00 75 1006.0
20260505034503 72 190 5.2 7.8 0.00 0.00 0.00 74 1006.1
20260505034009 72 205 5.2 7.8 0.00 0.00 0.00 74 1006.0
20260505033804 73 179 6.1 10.4 0.00 0.00 0.00 74 1005.3
20260505033503 72 163 5.2 8.7 0.00 0.00 0.00 74 1006.1
20260505033304 73 169 6.1 11.3 0.00 0.00 0.00 73 1005.5
20260505033009 73 199 5.2 8.7 0.00 0.00 0.00 73 1006.1
20260505032803 73 185 7.0 12.2 0.00 0.00 0.00 73 1005.5
20260505032502 73 187 5.2 9.6 0.00 0.00 0.00 73 1006.2
20260505032304 73 181 6.1 12.2 0.00 0.00 0.00 73 1005.5
20260505032008 73 194 5.2 9.6 0.00 0.00 0.00 73 1006.2
20260505031304 73 182 6.1 12.2 0.00 0.00 0.00 73 1005.5
20260505031006 73 170 5.2 8.7 0.00 0.00 0.00 73 1006.2
20260505030509 73 197 4.3 8.7 0.00 0.00 0.00 73 1006.1
20260505030304 73 176 6.1 10.4 0.00 0.00 0.00 73 1005.5
20260505030010 73 191 5.2 9.6 0.00 0.00 0.00 73 1006.1
20260505025506 73 144 5.2 9.6 0.00 0.00 0.00 72 1006.2
20260505024804 73 179 6.1 12.2 0.00 0.00 0.00 73 1005.4
20260505024507 73 184 5.2 8.7 0.00 0.00 0.00 73 1006.2
20260505024304 73 185 6.1 10.4 0.00 0.00 0.00 73 1005.4
20260505024010 73 190 5.2 8.7 0.00 0.00 0.00 72 1006.1
20260505023507 73 186 5.2 8.7 0.00 0.00 0.00 72 1005.9
20260505023304 74 184 7.0 12.2 0.00 0.00 0.00 72 1005.1
20260505023005 73 157 5.2 9.6 0.00 0.00 0.00 72 1005.9
20260505022506 73 178 4.3 12.2 0.00 0.00 0.00 72 1005.8
20260505022003 73 200 5.2 12.2 0.00 0.00 0.00 71 1005.9
20260505021504 74 172 4.3 7.8 0.00 0.00 0.00 71 1005.9
20260505021304 74 171 5.2 10.4 0.00 0.00 0.00 70 1005.2
20260505021009 74 202 4.3 7.8 0.00 0.00 0.00 70 1005.9
20260505020804 74 185 5.2 8.7 0.00 0.00 0.00 70 1005.0
20260505020504 74 173 4.3 7.8 0.00 0.00 0.00 70 1005.9
20260505020304 75 192 6.1 11.3 0.00 0.00 0.00 69 1005.0
20260505020007 74 184 5.2 12.2 0.00 0.00 0.00 69 1005.8
20260505015804 75 187 5.2 12.2 0.00 0.00 0.00 69 1005.0
20260505015505 75 180 6.1 12.2 0.00 0.00 0.00 69 1005.9
20260505015304 75 199 8.7 13.9 0.00 0.00 0.00 68 1005.1
20260505014804 75 189 8.7 15.6 0.00 0.00 0.00 68 1005.1
20260505014304 75 204 8.7 14.8 0.00 0.00 0.00 68 1005.1
20260505013803 75 181 6.1 13.9 0.00 0.00 0.00 68 1005.1
20260505013005 75 210 7.0 13.9 0.00 0.00 0.00 67 1005.8
20260505012502 75 205 7.0 12.2 0.00 0.00 0.00 67 1005.8
20260505012007 75 192 6.1 12.2 0.00 0.00 0.00 67 1005.8
20260505011505 75 189 6.1 10.4 0.00 0.00 0.00 66 1005.8
20260505011304 76 178 6.1 13.0 0.00 0.00 0.00 66 1005.1
20260505011007 76 179 7.0 12.2 0.00 0.00 0.00 66 1005.8
20260505010505 76 189 7.0 12.2 0.00 0.00 0.00 66 1005.8
20260505010007 76 191 6.1 12.2 0.00 0.00 0.00 66 1005.7
20260505005804 76 182 7.8 13.0 0.00 0.00 0.00 65 1005.1
20260505005004 76 195 9.6 16.5 0.00 0.00 0.00 64 1005.8
20260505004804 77 196 10.4 17.4 0.00 0.00 0.00 64 1005.1
20260505004502 76 186 8.7 16.5 0.00 0.00 0.00 64 1005.8
20260505004304 77 195 12.2 20.0 0.00 0.00 0.00 64 1005.1
20260505003804 77 204 8.7 15.6 0.00 0.00 0.00 64 1005.1
20260505003501 77 184 8.7 17.4 0.00 0.00 0.00 64 1005.9
20260505003304 77 185 10.4 22.6 0.00 0.00 0.00 64 1005.1
20260505003002 77 176 8.7 17.4 0.00 0.00 0.00 64 1005.8
20260505002804 77 202 12.2 21.7 0.00 0.00 0.00 63 1005.1
20260505002505 77 198 8.7 18.2 0.00 0.00 0.00 63 1005.9
20260505002304 77 193 9.6 15.6 0.00 0.00 0.00 63 1005.2
20260505002005 77 182 9.6 17.4 0.00 0.00 0.00 63 1005.8
20260505001503 77 206 10.4 17.4 0.00 0.00 0.00 63 1006.0
20260505000505 77 183 8.7 15.6 0.00 0.00 0.00 62 1005.9
20260505000304 78 200 11.3 20.0 0.00 0.00 0.00 62 1005.5
20260505000004 78 209 9.6 21.7 0.00 0.00 0.00 62 1005.9
20260504235506 78 178 10.4 21.7 0.00 0.00 0.00 62 1006.0
20260504235304 78 187 13.9 26.9 0.00 0.00 0.00 62 1005.5
20260504235007 78 205 8.7 19.1 0.00 0.00 0.00 62 1006.1
20260504234502 78 204 7.0 14.8 0.00 0.00 0.00 62 1006.2
20260504234304 78 196 8.7 13.9 0.00 0.00 0.00 62 1005.5
20260504234011 78 225 7.8 16.5 0.00 0.00 0.00 62 1006.2
20260504233504 78 210 7.8 18.2 0.00 0.00 0.00 61 1006.1
20260504232804 78 202 11.3 20.0 0.00 0.00 0.00 61 1005.4
20260504232504 78 205 9.6 16.5 0.00 0.00 0.00 61 1006.1
20260504232008 78 192 8.7 16.5 0.00 0.00 0.00 60 1006.1
20260504231804 79 203 11.3 20.0 0.00 0.00 0.00 61 1005.6
20260504231502 78 242 7.8 18.2 0.00 0.00 0.00 61 1006.3
20260504231007 78 190 8.7 17.4 0.00 0.00 0.00 60 1006.4
20260504230804 79 194 10.4 21.7 0.00 0.00 0.00 60 1005.5
20260504230505 79 192 7.8 17.4 0.00 0.00 0.00 60 1006.2
20260504225804 80 180 10.4 22.6 0.00 0.00 0.00 60 1005.8
20260504225506 79 182 9.6 17.4 0.00 0.00 0.00 59 1006.5
20260504225304 80 194 12.2 21.7 0.00 0.00 0.00 60 1005.8
20260504225005 79 194 9.6 25.2 0.00 0.00 0.00 60 1006.5
20260504224804 80 197 15.6 25.2 0.00 0.00 0.00 59 1005.8
20260504224505 79 155 9.6 25.2 0.00 0.00 0.00 59 1006.5
20260504224303 80 190 10.4 20.0 0.00 0.00 0.00 59 1005.8
20260504224003 79 187 10.4 19.1 0.00 0.00 0.00 59 1006.6
20260504223804 80 183 13.9 22.6 0.00 0.00 0.00 59 1005.7
20260504223507 79 194 9.6 19.1 0.00 0.00 0.00 59 1006.5
20260504223003 80 159 8.7 17.4 0.00 0.00 0.00 59 1006.3
20260504222804 80 199 12.2 20.9 0.00 0.00 0.00 59 1005.7
20260504222503 80 174 9.6 23.5 0.00 0.00 0.00 58 1006.5
20260504222305 80 190 11.3 20.0 0.00 0.00 0.00 58 1005.8
20260504222004 80 203 9.6 23.5 0.00 0.00 0.00 58 1006.6
20260504221304 80 186 12.2 21.7 0.00 0.00 0.00 58 1006.0
20260504221007 80 194 10.4 16.5 0.00 0.00 0.00 59 1006.6
20260504220502 80 221 8.7 16.5 0.00 0.00 0.00 59 1006.8
20260504220304 80 199 12.2 20.9 0.00 0.00 0.00 58 1006.1
20260504220007 80 180 7.0 14.8 0.00 0.00 0.00 58 1006.8
20260504215503 80 180 7.8 14.8 0.00 0.00 0.00 60 1006.8
20260504215305 81 182 8.7 17.4 0.00 0.00 0.00 58 1006.2
20260504215003 80 159 8.7 14.8 0.00 0.00 0.00 57 1007.0
20260504214804 81 213 11.3 20.0 0.00 0.00 0.00 58 1006.4
20260504214502 80 192 9.6 16.5 0.00 0.00 0.00 58 1007.1
20260504214003 79 194 10.4 18.2 0.00 0.00 0.00 58 1007.2
20260504213803 80 197 13.9 20.9 0.00 0.00 0.00 57 1006.5
20260504213505 80 180 9.6 18.2 0.00 0.00 0.00 56 1007.1
20260504213005 80 217 8.7 17.4 0.00 0.00 0.00 57 1007.1
20260504212504 80 191 9.6 17.4 0.00 0.00 0.00 59 1007.3
20260504212304 80 199 11.3 17.4 0.00 0.00 0.00 57 1006.8
20260504212007 80 224 9.6 18.2 0.00 0.00 0.00 57 1007.5
20260504211804 80 191 13.9 22.6 0.00 0.00 0.00 57 1007.0
20260504211505 79 183 9.6 20.0 0.00 0.00 0.00 57 1007.5
20260504211003 80 218 10.4 20.0 0.00 0.00 0.00 56 1007.5
20260504210804 80 188 11.3 25.2 0.00 0.00 0.00 57 1007.0
20260504210004 79 203 10.4 18.2 0.00 0.00 0.00 56 1007.7
20260504205006 79 170 9.6 18.2 0.00 0.00 0.00 57 1008.0
20260504204507 80 164 8.7 14.8 0.00 0.00 0.00 56 1008.2
20260504204304 80 168 10.4 15.6 0.00 0.00 0.00 56 1007.7
20260504204004 80 173 9.6 20.0 0.00 0.00 0.00 56 1008.3
20260504203804 80 180 12.2 20.9 0.00 0.00 0.00 55 1007.7
20260504203505 80 200 9.6 20.0 0.00 0.00 0.00 54 1008.4
20260504203010 80 199 8.7 15.6 0.00 0.00 0.00 56 1008.4
20260504202804 80 198 10.4 13.9 0.00 0.00 0.00 54 1007.8
20260504202003 79 238 9.6 19.1 0.00 0.00 0.00 54 1008.7
20260504201804 80 187 14.8 26.9 0.00 0.00 0.00 54 1008.0
20260504201504 79 152 9.6 17.4 0.00 0.00 0.00 54 1008.8
20260504200505 79 219 9.6 17.4 0.00 0.00 0.00 54 1009.1